Regional Weather Roundup
Issued by NWS

Home | Current Version | Previous Version | Text Only | Print | Product List | Glossary Off
Versions: 1 2 3 4 5 6 7 8 9 10 11 12 13 14 15 16 17 18 19 20 21 22 23 24 25 26 27 28 29 30 31 32 33 34 35 36 37 38 39 40 41 42 43 44 45 46 47 48 49 50

000
ASUS43 KBIS 040702
RWRND

NORTH DAKOTA REGIONAL WEATHER ROUNDUP
NATIONAL WEATHER SERVICE BISMARCK ND
200 AM CDT SAT JUL 04 2015

NOTE: "FAIR" INDICATES FEW OR NO CLOUDS BELOW 12,000 FEET WITH NO
SIGNIFICANT WEATHER AND/OR OBSTRUCTIONS TO VISIBILITY.


NDZ001>003-009>011-017-040800-
NORTHWEST NORTH DAKOTA

CITY           SKY/WX    TMP DP  RH WIND       PRES   REMARKS
WILLISTON      CLEAR     73  63  70 S8        29.82F
MINOT          CLEAR     64  61  90 CALM      29.84F FOG
$$

NDZ018>021-031>035-040>046-040800-
SOUTHWEST NORTH DAKOTA

CITY           SKY/WX    TMP DP  RH WIND       PRES   REMARKS
BISMARCK       CLOUDY    64  63  96 SE3       29.89F FOG
DICKINSON      CLEAR     66  62  87 S9        29.87F FOG
GARRISON         N/A     68  63  84 SE6       29.87F
HETTINGER ARPT CLEAR     64  60  87 SE6       29.92F FOG
$$

NDZ004>008-012>016-024-026-027-054-040800-
NORTHEAST NORTH DAKOTA

CITY           SKY/WX    TMP DP  RH WIND       PRES   REMARKS
GRAND FORKS    MOCLDY    60  58  92 S3        29.89S FOG
GRND FRKS AFB  CLEAR     60  59  97 S2        29.89F FOG
DEVILS LAKE    CLEAR     68  59  73 SE9       29.88F
$$

NDZ022-023-025-028>030-036>039-047>053-040800-
SOUTHEAST NORTH DAKOTA

CITY           SKY/WX    TMP DP  RH WIND       PRES   REMARKS
FARGO          CLEAR     64  60  87 SE5       29.90S FOG
JAMESTOWN      CLOUDY    67  63  87 S6        29.91S FOG
$$



USA.gov is the U.S. government's official web portal to all federal, state and local government web resources and services.